Погода в Хасыне

Россия / Магаданская область     60°05′14″N   150°53′33″E
В апреле 2022 года жителям России запретили посещать сайт meteo.paraplan.net по решению Генеральной прокуратуры. Аудитория сайта уменьшилась в 10 раз. Владельцы сайта не видят смысла в поддержке погодного сервера в таких условиях. Сайт будет закрыт в октябре.
темп.,
°C
ветер,
м/с
пор.,
м/с
влажн.,
%
обл.,
%
осадки,
мм/ч
давл.,
гПа
погр.,
м
6 октября, чт
чт623:00−10с328797 0.0 98823
02:00−11с338393 0.0 98925
05:00−10ссз2281100 0.0 99022
08:00−9ссз2377100 0.0 99271
11:00−6сз2358100 0.0 993500
14:00−5сз2347100 0.0 9951256
17:00−6ссз226314 0.0 99723
20:00−10ссв227566 0.0 100114
7 октября, пт
пт723:00−11ссв227599 0.0 100311
02:00−10с2276100 0.0 100511
05:00−10с2274100 0.0 100714
08:00−9ссв2272100 0.0 100918
11:00−4сз2254100 0.0 1009219
14:00−3сз2348100 0.0 1010721
17:00−4ссз3369100 0.0 101127
20:00−8ссв2278100 0.0 101415
8 октября, сб
сб823:00−9ссв2278100 0.0 101511
02:00−10св227760 0.0 101610
05:00−11св227845 0.0 101710
08:00−10св227747 0.0 101810
11:00−5ююз115972 0.0 1017189
14:00−4юз115747 0.0 1017390
17:00−5ююз11735 0.0 101710
20:00−8св21827 0.0 101810
9 октября, вс
вс923:00−9св22815 0.0 101812
02:00−9св227917 0.0 101611
05:00−8всв2179100 0.0 101611
08:00−8св227929 0.0 101514
11:00−4ю117260 0.0 1014230
14:00−3ююз117353 0.0 1013409
17:00−3зюз118555 0.0 101310
20:00−6сз118921 0.0 101310
10 октября, пн
пн1023:00−7с119121 0.0 101410
02:00−7с119336 0.0 101310
05:00−8ссв119478 0.0 101410
08:00−7с119498 0.1 101429
11:00−6зюз118684 0.1 1014265
14:00−4зюз217497 0.0 1014565
17:00−4зюз118058 0.1 101511
20:00−6ссв1185100 0.0 101610